Location: Newark
(7.0858°N, 171.3717°E)
Time: 04:57:04
(UTC+00:00)

Courier 1B Rocket - Pass Details

Date: 28 November 2020
Orbit: 920 x 1202 km, 28.2° (Epoch: 20 January)

Event Time Altitude Azimuth Distance (km) Brightness Sun altitude
Rises 03:45:49 0° 270° (W) 3,657 8.8 32.6°
Reaches altitude 10° 03:49:22 10° 253° (WSW) 2,668 8.7 31.8°
Maximum altitude 03:53:38 19° 210° (SSW) 2,080 8.0 30.9°
Drops below altitude 10° 03:57:50 10° 168° (SSE) 2,608 7.6 30.0°
Sets 04:01:16 0° 149° (SSE) 3,545 7.9 29.3°
